Location: Unspecified
(0.0000°N, 0.0000°E)
Time: 23:30:26
(UTC+00:00)

Tiros 1 - All Passes

Search period start: 17 January 2017 00:00
Search period end: 27 January 2017 00:00
Orbit: 630 x 665 km, 48.4° (Epoch: 17 January)

Date Brightness Start Highest point End Pass type
(mag) Time Alt. Az. Time Alt. Az. Time Alt. Az.
17 Jan - 08:23:02 10° NNW 08:27:24 35° NE 08:31:44 10° ESE daylight
17 Jan - 10:06:12 10° W 10:09:27 18° SW 10:12:42 10° S daylight
17 Jan - 20:35:49 10° SSW 20:40:25 65° SE 20:45:03 10° NE visible
18 Jan - 08:48:51 10° NW 08:53:36 67° SW 08:58:19 10° SSE daylight
18 Jan - 19:21:30 10° S 19:24:35 17° SE 19:27:39 10° E visible
18 Jan - 21:02:22 10° WSW 21:06:36 35° NW 21:10:53 10° NNE visible
19 Jan - 07:33:31 10° NNW 07:37:45 32° NE 07:41:59 10° ESE daylight
19 Jan - 09:16:17 10° W 09:19:49 20° SW 09:23:19 10° S daylight
19 Jan - 19:46:14 10° SSW 19:50:48 57° SE 19:55:22 10° NE visible
19 Jan - 21:31:41 10° WNW 21:32:53 11° NW 21:34:07 10° NW visible
20 Jan - 07:59:11 10° NW 08:03:57 76° SW 08:08:42 10° SE daylight
20 Jan - 18:32:12 10° SSE 18:34:56 15° SE 18:37:40 10° E visible
20 Jan - 20:12:38 10° WSW 20:16:59 40° NW 20:21:21 10° NNE visible
21 Jan - 06:44:00 10° N 06:48:07 28° NE 06:52:13 10° ESE daylight
21 Jan - 08:26:25 10° WNW 08:30:10 23° SW 08:33:55 10° S daylight
21 Jan - 18:56:41 10° SSW 19:01:10 50° SE 19:05:41 10° NE visible
21 Jan - 20:41:22 10° WNW 20:43:15 12° NW 20:45:09 10° NNW visible
22 Jan - 07:09:31 10° NW 07:14:19 85° SW 07:19:06 10° SE daylight
22 Jan - 17:42:57 10° SSE 17:45:18 14° SE 17:47:38 10° E daylight
22 Jan - 19:22:56 10° WSW 19:27:21 45° NW 19:31:47 10° NNE visible
23 Jan - 05:54:30 10° N 05:58:28 25° NE 06:02:25 10° ESE daylight
23 Jan - 07:36:34 10° WNW 07:40:31 25° SW 07:44:27 10° S daylight
23 Jan - 18:07:08 10° SSW 18:11:33 44° SE 18:15:58 10° ENE daylight
23 Jan - 19:51:15 10° W 19:53:36 14° NW 19:55:58 10° NNW visible
24 Jan - 06:19:52 10° NW 06:24:41 85° NE 06:29:28 10° SE daylight
24 Jan - 16:53:49 10° SSE 16:55:39 12° SE 16:57:29 10° ESE daylight
24 Jan - 18:33:15 10° SW 18:37:43 50° NW 18:42:13 10° NNE visible
25 Jan - 05:05:02 10° N 05:08:49 23° NE 05:12:35 10° ESE visible
25 Jan - 06:46:45 10° WNW 06:50:52 28° SW 06:54:59 10° S daylight
25 Jan - 17:17:36 10° SSW 17:21:55 39° SE 17:26:14 10° ENE daylight
25 Jan - 19:01:15 10° W 19:03:57 15° NW 19:06:41 10° NNW visible
26 Jan - 05:30:14 10° NW 05:35:01 76° NE 05:39:49 10° SE visible
26 Jan - 16:04:57 10° SE 16:06:01 11° SE 16:07:04 10° ESE daylight
26 Jan - 17:43:34 10° SW 17:48:06 57° NW 17:52:38 10° NNE daylight
